FW7384 Weather Reports


time (UTC)temp
C
wind
direction
speed
KPH
gust
KPH
rain 1hr
cm
rain 24hr
cm
rain mn
cm
humidity
%
barometer
mb
20260901073003 15 262 1.6 3.2 0.00 0.15 0.00 98 1009.0
20260901072504 14 252 1.6 4.8 0.00 0.15 0.00 98 1009.1
20260901072214 14 230 1.6 4.8 0.00 0.15 0.00 98 1008.9
20260901071713 14 229 1.6 4.8 0.00 0.15 0.00 99 1008.8
20260901071003 14 234 0.0 3.2 0.00 0.15 0.00 99 1008.9
20260901070504 14 228 0.0 4.8 0.00 0.15 0.00 99 1008.9
20260901070003 14 226 1.6 6.4 0.00 0.15 0.00 99 1008.8
20260901065714 14 226 1.6 6.4 0.00 0.15 0.00 99 1008.7
20260901065213 13 226 3.2 6.4 0.00 0.15 0.00 99 1008.8
20260901064504 13 242 1.6 6.4 0.00 0.15 0.00 99 1008.6
20260901064003 13 233 0.0 3.2 0.00 0.15 0.00 99 1008.6
20260901063503 13 215 1.6 4.8 0.00 0.15 0.00 99 1008.6
20260901063003 13 215 1.6 6.4 0.00 0.15 0.00 99 1008.5
20260901062503 13 214 1.6 8.0 0.00 0.15 0.00 99 1008.4
20260901062003 13 176 1.6 8.0 0.00 0.15 0.00 99 1008.4
20260901061714 13 158 1.6 8.0 0.00 0.15 0.00 99 1008.3
20260901061213 13 214 1.6 6.4 0.00 0.15 0.00 99 1008.5
20260901060503 13 192 1.6 6.4 0.00 0.15 0.00 99 1008.3
20260901060213 13 199 1.6 6.4 0.00 0.15 0.00 99 1008.3
20260901055714 13 189 3.2 6.4 0.00 0.15 0.00 99 1008.1
20260901055003 13 186 3.2 8.0 0.00 0.15 0.00 99 1008.3
20260901054504 13 185 1.6 8.0 0.00 0.15 0.00 99 1008.1
20260901054003 13 211 1.6 8.0 0.00 0.15 0.00 99 1008.4
20260901053714 13 224 1.6 8.0 0.00 0.15 0.00 99 1008.2
20260901053213 13 231 1.6 4.8 0.00 0.15 0.00 99 1008.2
20260901052503 13 219 3.2 8.0 0.00 0.15 0.00 99 1008.0
20260901052004 13 195 4.8 8.0 0.00 0.15 0.00 99 1008.1
20260901051503 13 170 3.2 8.0 0.00 0.15 0.00 99 1008.0
20260901051213 13 179 3.2 8.0 0.00 0.15 0.00 99 1008.2
20260901050714 13 206 1.6 6.4 0.00 0.15 0.00 99 1008.0
20260901050213 13 220 1.6 4.8 0.00 0.15 0.00 99 1008.0
20260901045504 13 186 1.6 4.8 0.00 0.15 0.00 99 1008.0
20260901045003 13 178 1.6 6.4 0.00 0.15 0.00 99 1007.9
20260901044506 13 172 1.6 6.4 0.00 0.15 0.00 99 1008.0
20260901044214 13 159 1.6 6.4 0.00 0.15 0.00 99 1008.0
20260901043503 13 151 3.2 8.0 0.00 0.15 0.00 99 1008.1
20260901043004 13 175 3.2 8.0 0.00 0.15 0.00 99 1008.0
20260901042714 13 175 3.2 8.0 0.00 0.15 0.00 99 1007.9
20260901042212 13 188 1.6 6.4 0.00 0.15 0.00 99 1008.0
20260901041713 13 209 1.6 4.8 0.00 0.15 0.00 99 1007.8
20260901041003 13 210 0.0 3.2 0.00 0.15 0.00 99 1008.0
20260901040503 13 209 0.0 1.6 0.00 0.15 0.00 99 1008.0
20260901040214 13 200 0.0 1.6 0.00 0.15 0.00 99 1007.9
20260901035503 13 0 0.0 0.0 0.00 0.15 0.00 99 1007.8
20260901035004 13 176 0.0 1.6 0.00 0.15 0.00 99 1007.9
20260901034713 13 198 0.0 3.2 0.00 0.15 0.00 99 1007.9
20260901034003 13 181 1.6 4.8 0.00 0.15 0.00 99 1007.8
20260901033503 13 195 3.2 4.8 0.00 0.15 0.00 99 1007.7
20260901033003 13 190 3.2 6.4 0.00 0.15 0.00 99 1007.9
20260901032503 13 189 3.2 6.4 0.00 0.15 0.00 99 1007.9
20260901032214 13 181 3.2 6.4 0.00 0.15 0.00 99 1007.9
20260901031504 13 170 3.2 6.4 0.00 0.15 0.00 99 1007.9
20260901031214 13 178 1.6 6.4 0.00 0.15 0.00 99 1007.7
20260901030713 13 194 0.0 3.2 0.00 0.15 0.00 99 1007.7
20260901030003 13 208 0.0 3.2 0.00 0.15 0.00 99 1007.8
20260901025503 13 212 0.0 3.2 0.00 0.15 0.00 99 1007.7
20260901025004 13 207 0.0 3.2 0.00 0.15 0.00 99 1007.7
20260901024713 13 199 0.0 4.8 0.00 0.15 0.00 99 1007.8
20260901024214 13 173 1.6 4.8 0.00 0.15 0.00 99 1007.6
20260901023713 13 167 1.6 4.8 0.00 0.15 0.00 99 1007.6
20260901023214 13 184 1.6 4.8 0.00 0.15 0.00 99 1007.9
20260901022503 13 189 1.6 3.2 0.00 0.15 0.00 99 1007.6
20260901022214 13 184 0.0 3.2 0.00 0.15 0.00 99 1007.7
20260901021503 13 164 0.0 3.2 0.00 0.15 0.00 99 1007.6
20260901021003 13 166 0.0 3.2 0.00 0.15 0.00 99 1007.9
20260901020503 13 174 1.6 3.2 0.00 0.15 0.00 99 1007.6
20260901020003 13 173 1.6 3.2 0.00 0.15 0.00 99 1007.5
20260901015503 13 180 1.6 4.8 0.00 0.15 0.00 99 1007.6
20260901015004 13 189 1.6 4.8 0.00 0.15 0.00 99 1007.6
20260901014503 13 192 3.2 6.4 0.00 0.15 0.00 99 1007.7
20260901014003 13 186 1.6 6.4 0.00 0.15 0.00 99 1007.6
20260901013712 13 186 1.6 6.4 0.00 0.15 0.00 99 1007.6
20260901013213 13 195 1.6 3.2 0.00 0.15 0.00 99 1007.4
20260901012503 13 209 1.6 3.2 0.00 0.15 0.00 99 1007.4
20260901012004 13 202 1.6 4.8 0.00 0.15 0.00 99 1007.5
20260901011503 13 181 1.6 4.8 0.00 0.15 0.00 99 1007.4
20260901011003 13 177 1.6 4.8 0.00 0.15 0.00 99 1007.4
20260901010714 13 189 1.6 4.8 0.00 0.15 0.00 99 1007.5
20260901010003 13 194 1.6 3.2 0.00 0.15 0.00 99 1007.5
20260901005714 13 191 1.6 3.2 0.00 0.15 0.00 99 1007.5
20260901005003 13 214 1.6 4.8 0.00 0.15 0.00 99 1007.5
20260901004714 13 216 1.6 4.8 0.00 0.15 0.00 99 1007.4
20260901004003 13 193 3.2 4.8 0.00 0.15 0.00 99 1007.5
20260901003714 13 191 3.2 4.8 0.00 0.15 0.00 99 1007.6
20260901003213 13 192 3.2 6.4 0.00 0.15 0.00 99 1007.5
20260901002714 13 183 3.2 6.4 0.00 0.15 0.00 99 1007.5
20260901002003 13 174 3.2 6.4 0.00 0.15 0.00 99 1007.5
20260901001503 13 185 1.6 6.4 0.00 0.15 0.00 99 1007.5
20260901001213 13 189 1.6 4.8 0.00 0.15 0.00 99 1007.4
20260901000714 13 194 1.6 4.8 0.00 0.15 0.00 99 1007.4
20260901000004 13 193 1.6 6.4 0.00 0.15 0.00 99 1007.5
20260831235503 13 182 1.6 6.4 0.00 0.15 0.00 99 1007.6
20260831235003 13 190 1.6 3.2 0.00 0.15 0.00 99 1007.5
20260831234714 13 202 1.6 3.2 0.00 0.15 0.00 99 1007.5
20260831234003 13 198 1.6 4.8 0.00 0.15 0.00 99 1007.4
20260831233504 13 191 3.2 4.8 0.00 0.15 0.00 99 1007.6
20260831233003 13 197 3.2 4.8 0.00 0.15 0.00 99 1007.6
20260831232503 13 196 3.2 6.4 0.00 0.15 0.00 99 1007.6
20260831232213 13 187 3.2 6.4 0.00 0.15 0.00 99 1007.7
20260831231503 13 187 3.2 6.4 0.00 0.15 0.00 99 1007.7
20260831231003 13 186 3.2 6.4 0.00 0.15 0.00 99 1007.7
20260831230714 13 187 1.6 4.8 0.00 0.15 0.00 99 1007.6
20260831230003 13 195 1.6 6.4 0.00 0.15 0.00 99 1007.7
20260831225503 13 182 3.2 6.4 0.00 0.15 0.00 99 1007.7
20260831225003 13 177 3.2 6.4 0.00 0.15 0.00 99 1007.6
20260831224503 13 180 3.2 6.4 0.00 0.15 0.00 99 1007.7
20260831224003 13 189 4.8 9.7 0.00 0.15 0.00 99 1007.6
20260831223504 13 193 4.8 9.7 0.00 0.15 0.00 99 1007.7
20260831223003 13 181 4.8 11.3 0.00 0.15 0.00 99 1007.8
20260831222713 13 179 4.8 11.3 0.00 0.15 0.00 99 1007.8
20260831222003 13 176 3.2 6.4 0.00 0.15 0.00 99 1007.6
20260831221713 13 174 3.2 6.4 0.00 0.15 0.00 99 1007.7
20260831221003 13 173 3.2 4.8 0.00 0.15 0.00 99 1007.8
20260831220713 13 179 3.2 6.4 0.00 0.15 0.00 99 1007.7
20260831220214 13 183 3.2 6.4 0.00 0.15 0.00 99 1007.6
20260831215713 13 187 3.2 6.4 0.00 0.15 0.15 99 1007.8
20260831215003 13 168 3.2 6.4 0.00 0.15 0.15 99 1007.8
20260831214214 13 166 1.6 6.4 0.00 0.15 0.15 99 1007.6
20260831213503 13 172 1.6 4.8 0.00 0.15 0.15 98 1007.6
20260831213004 13 159 0.0 1.6 0.00 0.15 0.15 98 1007.5
20260831212503 13 142 0.0 3.2 0.00 0.15 0.15 98 1007.5
20260831212004 13 126 0.0 3.2 0.00 0.15 0.15 98 1007.2
20260831211713 13 116 0.0 3.2 0.00 0.15 0.15 98 1007.6
20260831211003 13 127 0.0 4.8 0.00 0.15 0.15 98 1007.3
20260831210713 13 136 1.6 4.8 0.00 0.15 0.15 98 1007.3
20260831210214 13 141 1.6 4.8 0.00 0.15 0.15 98 1007.2
20260831205503 13 147 0.0 6.4 0.00 0.15 0.15 98 1007.2
20260831205214 13 141 1.6 6.4 0.00 0.15 0.15 98 1007.3
20260831204503 13 167 3.2 6.4 0.00 0.15 0.15 98 1007.4
20260831204004 13 173 1.6 4.8 0.00 0.15 0.15 98 1007.4
20260831203503 13 160 1.6 4.8 0.00 0.15 0.15 98 1007.4
20260831203214 13 149 1.6 4.8 0.00 0.15 0.15 98 1007.6
20260831202503 13 159 1.6 4.8 0.00 0.15 0.15 97 1007.4
20260831202003 13 161 1.6 4.8 0.00 0.15 0.15 97 1007.2
20260831201503 13 170 1.6 6.4 0.00 0.15 0.15 97 1007.3
20260831201003 13 162 1.6 6.4 0.00 0.15 0.15 97 1007.3
20260831200504 13 151 1.6 6.4 0.00 0.15 0.15 97 1007.4
20260831200003 13 160 1.6 6.4 0.00 0.15 0.15 97 1007.3
20260831195714 13 154 1.6 8.0 0.00 0.15 0.15 97 1007.3
20260831195213 13 143 1.6 8.0 0.00 0.15 0.15 97 1007.2
20260831194504 13 169 1.6 8.0 0.05 0.15 0.15 97 1007.3
20260831194003 13 180 3.2 8.0 0.08 0.15 0.15 96 1007.3
20260831193714 13 183 3.2 8.0 0.08 0.15 0.15 96 1007.4
20260831193003 13 167 4.8 8.0 0.08 0.15 0.15 96 1007.3
20260831192504 13 155 3.2 6.4 0.10 0.15 0.15 96 1007.3
20260831192003 13 168 3.2 8.0 0.10 0.15 0.15 96 1007.1
20260831191503 13 175 3.2 8.0 0.13 0.15 0.15 95 1007.1
20260831191003 13 184 3.2 6.4 0.13 0.15 0.15 95 1007.3
20260831190503 13 145 1.6 8.0 0.15 0.15 0.15 95 1007.3
20260831190213 13 156 3.2 8.0 0.15 0.15 0.15 95 1007.2
20260831185503 13 190 3.2 9.7 0.15 0.15 0.15 96 1007.2
20260831185003 14 194 3.2 9.7 0.15 0.15 0.15 96 1007.2
20260831184503 14 193 4.8 8.0 0.10 0.10 0.10 97 1007.3
20260831184213 15 187 4.8 6.4 0.10 0.10 0.10 97 1007.4
20260831183504 15 173 3.2 6.4 0.08 0.08 0.08 96 1007.3
20260831183003 15 193 3.2 12.9 0.05 0.05 0.05 96 1007.2
20260831182504 15 181 4.8 12.9 0.05 0.05 0.05 96 1007.3
20260831182003 15 173 4.8 12.9 0.05 0.05 0.05 95 1007.3
20260831181503 15 177 4.8 9.7 0.00 0.03 0.00 95 1007.3
20260831181003 15 177 3.2 9.7 0.00 0.03 0.00 95 1007.2
20260831180503 15 151 3.2 6.4 0.00 0.00 0.00 95 1007.0
20260831180003 15 134 1.6 6.4 0.00 0.00 0.00 94 1007.1
20260831175503 15 133 1.6 4.8 0.00 0.00 0.00 94 1007.1
20260831175003 15 90 1.6 6.4 0.00 0.00 0.00 94 1007.0
20260831174503 15 96 1.6 6.4 0.00 0.00 0.00 94 1006.8
20260831174003 15 90 1.6 4.8 0.00 0.00 0.00 94 1007.1
20260831173713 15 92 1.6 6.4 0.00 0.00 0.00 94 1007.1
20260831173003 15 101 3.2 6.4 0.00 0.00 0.00 93 1007.0
20260831172713 15 104 3.2 6.4 0.00 0.00 0.00 93 1007.0
20260831172003 15 104 3.2 6.4 0.00 0.00 0.00 93 1007.0
20260831171504 15 95 3.2 6.4 0.00 0.03 0.00 92 1007.1
20260831171003 15 102 3.2 6.4 0.00 0.03 0.00 92 1007.0
20260831170504 15 110 3.2 6.4 0.00 0.03 0.00 92 1007.0
20260831170214 15 118 1.6 6.4 0.00 0.03 0.00 91 1006.9
20260831165503 15 144 1.6 4.8 0.00 0.03 0.00 91 1007.0
20260831165214 15 136 1.6 4.8 0.00 0.03 0.00 91 1006.8
20260831164713 16 137 1.6 3.2 0.00 0.05 0.00 90 1006.9
20260831164003 16 99 0.0 4.8 0.00 0.05 0.00 90 1006.8
20260831163503 16 130 1.6 4.8 0.00 0.05 0.00 89 1006.7
20260831163003 16 142 1.6 4.8 0.00 0.05 0.00 88 1006.9
20260831162713 16 123 1.6 4.8 0.00 0.05 0.00 88 1006.9
20260831162214 16 113 3.2 6.4 0.00 0.05 0.00 87 1007.0
20260831161504 16 154 3.2 9.7 0.00 0.05 0.00 85 1007.1
20260831161214 16 169 3.2 9.7 0.00 0.05 0.00 85 1007.0
20260831160713 16 163 3.2 9.7 0.00 0.05 0.00 84 1006.9
20260831160214 16 178 3.2 8.0 0.00 0.05 0.00 84 1006.8
20260831155503 16 196 4.8 11.3 0.00 0.05 0.00 83 1007.0
20260831155214 16 192 4.8 11.3 0.00 0.05 0.00 83 1007.0
20260831154504 16 172 4.8 8.0 0.00 0.05 0.00 82 1006.9
20260831154003 16 153 3.2 8.0 0.00 0.05 0.00 83 1007.0
20260831153503 16 165 4.8 9.7 0.00 0.05 0.00 83 1007.0
20260831153003 16 164 6.4 12.9 0.00 0.05 0.00 82 1007.0
20260831152713 16 161 4.8 12.9 0.00 0.05 0.00 82 1007.1
20260831152003 16 157 4.8 12.9 0.00 0.08 0.00 82 1007.2
20260831151504 16 154 4.8 12.9 0.00 0.08 0.00 82 1007.2
20260831151003 16 125 3.2 11.3 0.00 0.08 0.00 81 1007.2
20260831150712 16 160 4.8 11.3 0.00 0.08 0.00 84 1007.0
20260831150003 16 178 4.8 11.3 0.00 0.08 0.00 84 1007.3
20260831145503 16 176 3.2 8.0 0.00 0.08 0.00 87 1007.4
20260831145213 16 170 3.2 8.0 0.00 0.08 0.00 86 1007.3
20260831144503 16 160 1.6 8.0 0.00 0.08 0.00 87 1007.5
20260831144213 16 182 3.2 8.0 0.00 0.08 0.00 87 1007.3
20260831143504 15 197 6.4 11.3 0.00 0.28 0.00 88 1007.3
20260831143004 15 178 6.4 11.3 0.00 0.30 0.00 88 1007.5
20260831142503 15 175 4.8 9.7 0.00 0.30 0.00 89 1007.5
20260831142003 15 183 4.8 9.7 0.00 0.30 0.00 89 1007.5
20260831141503 15 185 4.8 8.0 0.00 0.30 0.00 89 1007.6
20260831141003 15 194 4.8 9.7 0.00 0.30 0.00 90 1007.4
20260831140503 15 183 4.8 9.7 0.00 0.30 0.00 90 1007.7
20260831140003 15 181 4.8 9.7 0.00 0.30 0.00 90 1007.7
20260831135504 15 173 6.4 12.9 0.00 0.30 0.00 90 1007.7
20260831135003 15 182 6.4 16.1 0.00 0.30 0.00 91 1007.6
20260831134503 15 185 8.0 20.9 0.00 0.30 0.00 91 1007.7
20260831134003 15 181 11.3 20.9 0.00 0.30 0.00 91 1007.8
20260831133503 15 177 9.7 20.9 0.00 0.33 0.00 87 1007.9
20260831133213 16 178 9.7 20.9 0.00 0.33 0.00 84 1007.5
20260831132504 16 179 6.4 12.9 0.00 0.33 0.00 82 1007.7
20260831132004 16 180 6.4 11.3 0.00 0.33 0.00 82 1007.6
20260831131503 16 191 6.4 11.3 0.00 0.33 0.00 82 1007.8
20260831131004 16 194 8.0 16.1 0.00 0.33 0.00 81 1007.6
20260831130714 16 199 6.4 16.1 0.00 0.33 0.00 81 1007.6
20260831130003 16 195 4.8 14.5 0.00 0.33 0.00 80 1007.6
20260831125714 17 182 4.8 11.3 0.00 0.33 0.00 80 1007.7
20260831125003 17 170 6.4 12.9 0.00 0.33 0.00 78 1007.8
20260831124504 17 170 4.8 12.9 0.00 0.33 0.00 78 1007.6
20260831124003 17 191 4.8 9.7 0.00 0.33 0.00 78 1007.6
20260831123503 17 185 4.8 14.5 0.00 0.33 0.00 79 1007.4
20260831123003 16 179 4.8 14.5 0.00 0.33 0.00 81 1007.7
20260831122503 16 193 4.8 11.3 0.00 0.33 0.00 82 1007.8
20260831122003 16 190 6.4 14.5 0.00 0.33 0.00 83 1007.7
20260831121503 16 188 6.4 14.5 0.00 0.33 0.00 83 1007.8
20260831121004 16 197 6.4 14.5 0.00 0.33 0.00 82 1007.9
20260831120504 16 186 4.8 9.7 0.00 0.33 0.00 83 1007.8
20260831120003 16 179 4.8 11.3 0.00 0.33 0.00 83 1007.6
20260831115503 16 182 4.8 14.5 0.00 0.33 0.00 84 1007.6
20260831115214 16 181 6.4 14.5 0.00 0.33 0.00 82 1007.5
20260831114503 16 185 8.0 14.5 0.00 0.33 0.00 81 1007.4
20260831114003 16 179 8.0 17.7 0.00 0.33 0.00 81 1007.5
20260831113713 16 173 8.0 17.7 0.00 0.33 0.00 80 1007.5
20260831113214 16 173 6.4 17.7 0.00 0.33 0.00 80 1007.4
20260831112503 16 179 6.4 12.9 0.00 0.33 0.00 81 1007.6
20260831112003 16 178 6.4 14.5 0.00 0.33 0.00 82 1007.4
20260831111503 16 187 6.4 14.5 0.00 0.33 0.00 81 1007.4
20260831111003 16 207 4.8 14.5 0.00 0.33 0.00 81 1007.8
20260831110713 16 216 4.8 9.7 0.00 0.33 0.00 82 1007.7
20260831110004 16 202 4.8 9.7 0.00 0.33 0.00 84 1007.6
20260831105503 16 192 4.8 9.7 0.00 0.33 0.00 85 1007.8
20260831105003 16 176 4.8 9.7 0.00 0.33 0.00 86 1007.8
20260831104503 16 177 4.8 9.7 0.00 0.33 0.00 86 1007.9
20260831104214 16 187 4.8 9.7 0.00 0.33 0.00 87 1007.8
20260831103504 16 203 4.8 9.7 0.00 0.33 0.00 86 1007.9
20260831103214 16 190 4.8 9.7 0.00 0.33 0.00 86 1007.7
20260831102503 16 170 6.4 11.3 0.00 0.33 0.00 86 1007.7
20260831102214 16 182 6.4 11.3 0.00 0.33 0.00 86 1007.7
20260831101503 16 193 4.8 11.3 0.00 0.33 0.00 85 1007.7
20260831101003 16 185 6.4 16.1 0.00 0.33 0.00 86 1007.9
20260831100713 15 179 6.4 16.1 0.00 0.33 0.00 87 1007.8
20260831100003 15 186 6.4 12.9 0.00 0.33 0.00 87 1007.8
20260831095503 15 186 8.0 17.7 0.00 0.33 0.00 86 1007.7
20260831095214 15 184 8.0 17.7 0.00 0.33 0.00 86 1007.9
20260831094503 15 169 6.4 19.3 0.00 0.33 0.00 87 1007.8
20260831094003 15 169 8.0 19.3 0.00 0.33 0.00 87 1007.9
20260831093503 15 186 8.0 14.5 0.00 0.33 0.00 88 1007.7
20260831093003 15 195 6.4 14.5 0.00 0.33 0.00 90 1007.7
20260831092714 15 194 6.4 14.5 0.00 0.33 0.00 91 1007.6
20260831092213 15 194 6.4 14.5 0.00 0.33 0.00 91 1007.7
20260831091503 15 187 6.4 12.9 0.00 0.33 0.00 92 1007.7
20260831091213 15 185 6.4 12.9 0.00 0.33 0.00 92 1007.7
20260831090503 15 201 6.4 17.7 0.00 0.33 0.00 92 1007.7
20260831090003 15 198 6.4 17.7 0.00 0.33 0.00 91 1007.6
20260831085714 15 188 6.4 12.9 0.00 0.33 0.00 92 1007.6
20260831085003 14 194 6.4 12.9 0.00 0.33 0.00 93 1007.5
20260831084504 14 191 6.4 12.9 0.00 0.33 0.00 93 1007.5
20260831084003 14 184 6.4 11.3 0.00 0.33 0.00 94 1007.6
20260831083503 14 195 4.8 11.3 0.00 0.33 0.00 95 1007.5
20260831083003 13 209 4.8 9.7 0.00 0.36 0.00 95 1007.5
20260831082714 14 194 4.8 9.7 0.00 0.36 0.00 96 1007.6
20260831082003 14 175 4.8 8.0 0.00 0.36 0.00 96 1007.4
20260831081504 13 179 4.8 9.7 0.00 0.36 0.00 96 1007.4
20260831081003 13 188 4.8 9.7 0.00 0.36 0.00 95 1007.5
20260831080714 13 187 4.8 9.7 0.00 0.36 0.00 95 1007.4
20260831080004 13 189 4.8 9.7 0.00 0.36 0.00 95 1007.6
20260831075714 13 192 4.8 12.9 0.00 0.36 0.00 95 1007.6
20260831075213 14 189 4.8 12.9 0.00 0.36 0.00 95 1007.6
20260831074714 14 182 6.4 12.9 0.00 0.36 0.00 94 1007.8
20260831074003 14 189 4.8 12.9 0.00 0.36 0.00 94 1007.7